Weather Roundup
Issued by NWS Springfield, MO

Home | Current Version | Previous Version | Text Only | Print | Product List | Glossary On
Versions: 1 2 3 4 5 6 7 8 9 10 11 12 13 14 15 16 17 18 19 20 21 22 23 24 25 26 27 28 29 30 31 32 33 34 35 36 37 38 39 40 41 42 43 44 45 46 47 48 49 50
000
NZUS99 KSGF 191859
HRRSGF

HOURLY WEATHER
NATIONAL WEATHER SERVICE SPRINGFIELD MO
200 PM CDT SUN APR 19 2015

......SGF CWA......

CITY           SKY/WX    TMP DP  RH WIND       PRES   REMARKS
SPRINGFIELD    PTSUNNY   67  52  58 NW15G23   29.67F
JOPLIN         PTSUNNY   63  52  67 W22       29.73R
WEST PLAINS    TSTM      62  55  77 VRB6G18   29.64S
ROLLA          CLOUDY    63  59  87 W8        29.59F
OSAGE BEACH    CLOUDY    66  55  68 W12       29.62F
BRANSON        PTSUNNY   70  50  49 NW14G21   29.68F

......SURROUNDING SGF CWA......

CITY           SKY/WX    TMP DP  RH WIND       PRES   REMARKS
CHANUTE        CLOUDY    63  54  72 W9        29.71S
PARSONS        CLOUDY    62  54  74 W8        29.72F
COFFEYVILLE    CLOUDY    61  56  83 VRB3      29.71F
EMPORIA        CLOUDY    66  51  58 NW12      29.69F
SILOAM SPRINGS PTSUNNY   68  54  60 N13       29.72F
HARRISON AR    SUNNY     73  51  46 W12       29.67F
NEAR YELLVILLE PTSUNNY   75 N/A N/A NW9G18    29.63F

......KANSAS AND MISSOURI......

CITY           SKY/WX    TMP DP  RH WIND       PRES   REMARKS
KANSAS CTY INT CLOUDY    65  54  67 NW14G22   29.64F
DOWNTOWN KC    PTSUNNY   68  52  56 NW15      29.63F
COLUMBIA       CLOUDY    66  60  81 W8        29.60F
SEDALIA        CLOUDY    65  56  72 W16       29.64F
ST JOSEPH      CLOUDY    59  54  83 NW21      29.66S
ST LOUIS       CLOUDY    65  59  81 CALM      29.55F
SPIRIT OF STL  LGT RAIN  65  59  81 W13G18    29.54F
KIRKSVILLE     CLOUDY    67  58  72 W18G24    29.58F
WICHITA        LGT RAIN  66  51  58 NW15      29.73F
TOPEKA         CLOUDY    64  53  67 NW17G23   29.69F
OLATHE         PTSUNNY   67  54  63 W10G18    29.65F

......TENNESSEE......

CITY           SKY/WX    TMP DP  RH WIND       PRES   REMARKS
MEMPHIS        LGT RAIN  72  64  76 W9G16     29.65F
NASHVILLE      PTSUNNY   76  65  68 S21G26    29.59F

......ARKANSAS.......

CITY           SKY/WX    TMP DP  RH WIND       PRES   REMARKS
FAYETTEVILLE   MOSUNNY   68  54  60 NW8       29.69F
FT SMITH       MOSUNNY   74  54  49 W7        29.66F
LITTLE ROCK    MOSUNNY   80  55  42 SW7G16    29.67F

......OKLAHOMA.......

CITY           SKY/WX    TMP DP  RH WIND       PRES   REMARKS
TULSA          PTSUNNY   67  53  61 CALM      29.70F
PONCA CITY     PTSUNNY   68  54  60 N9        29.72F
MCALESTER      CLOUDY    68  57  68 N9        29.71S
OKLAHOMA CITY  PTSUNNY   67  49  52 NW12      29.75S

......IOWA............

CITY           SKY/WX    TMP DP  RH WIND       PRES   REMARKS
DES MOINES     CLOUDY    64  57  78 NW9       29.57F
QUAD CITIES    MOSUNNY   78  48  34 E12       29.54F

......ILLINOIS........

CITY           SKY/WX    TMP DP  RH WIND       PRES   REMARKS
QUINCY         CLOUDY    67  54  63 W8        29.55F
CHICAGO        PTSUNNY   67  38  34 E13       29.63F



USA.gov is the U.S. government's official web portal to all federal, state and local government web resources and services.